Notices

What's New in latest Release from April 7th, 2021:

- Updated Glossary, including Speed of Maximum Gust, and Total Hourly Precipitation

- Updated national and regional climate services offices contacts and prices information

- Addition of station inventory lists for 1981-2010, 1971-2000, and 1961-1990 Normals.

If you haven't already, please take our survey and provide feedback about our website: https://eccc.sondage-survey.ca/f/LanguageSelection.aspx?s=442ca660-fcf1-47c0-95a9-59707d6fd709

Hourly Data Report for March 17, 2018

MIRAMICHI RCS
NEW BRUNSWICK

47°00'34.000" N
65°27'54.000" W
33.00 m
8100989
71744
ACQ

Download Data

Hourly Data (March 2018)
Hourly Data Report for March 17, 2018
TIME
LST
Temp Definition
°C
Dew Point Definition
°C
Rel Hum Definition
%
Precip. Amount Definition
mm

Wind Dir Definition
10's deg

Wind Spd Definition
km/h
Visibility Definition
km
Stn Press Definition
kPa
Hmdx Definition


Wind Chill Definition


Weather Definition


00:00 -7.3 -12.8 65 0.0 27 14   98.77   -13 LegendNANA
01:00 -7.6 -12.9 66 0.0 26 16   98.77   -14 LegendNANA
02:00 -7.6 -12.2 70 0.0 27 15   98.75   -14 LegendNANA
03:00 -8.4 -12.0 75 0.0 26 14   98.71   -15 LegendNANA
04:00 -9.2 -12.5 77 0.0 25 13   98.70   -15 LegendNANA
05:00 -9.0 -12.4 77 0.0 26 12   98.72   -15 LegendNANA
06:00 -9.2 -12.2 79 0.0 25 11   98.75   -15 LegendNANA
07:00 -9.3 -14.6 65 0.0 29 17   98.78   -16 LegendNANA
08:00 -9.3 -15.6 60 0.0 29 21   98.78   -17 LegendNANA
09:00 -9.4 -16.8 55 0.0 29 23   98.80   -18 LegendNANA
10:00 -8.9 -17.4 50 0.0 28 26   98.81   -18 LegendNANA
11:00 -8.2 -17.3 48 0.0 29 21   98.80   -16 LegendNANA
12:00 -8.0 -15.8 53 0.0 27 20   98.79   -15 LegendNANA
13:00 -7.8 -14.2 60 0.0 28 20   98.81   -15 LegendNANA
14:00 -7.3 -15.5 52 0.0 29 24   98.83   -15 LegendNANA
15:00 -7.3 -15.8 51 0.0 30 20   98.90   -14 LegendNANA
16:00 -7.5 -15.0 55 0.0 29 23   98.95   -15 LegendNANA
17:00 -7.6 -15.8 52 0.0 31 18   99.03   -14 LegendNANA
18:00 -8.6 -15.3 58 0.0 30 20   99.14   -16 LegendNANA
19:00 -9.6 -15.9 60 0.0 28 15   99.24   -16 LegendNANA
20:00 -10.1 -16.2 61 0.0 27 13   99.29   -16 LegendNANA
21:00 -9.7 -14.8 66 0.0 28 14   99.31   -16 LegendNANA
22:00 -9.4 -13.7 71 0.0 28 15   99.33   -16 LegendNANA
23:00 -9.5 -14.3 68 0.0 28 12   99.35   -15 LegendNANA

Notes on Data Quality.

Legend

  • E = Estimated
  • M = Missing
  • NA = Not Available*
  • [empty] = Indicates an unobserved value
Date modified: